GW6166 Weather Reports


Display with metric or nautical units.
time (UTC)temp
F
wind
direction
speed
MPH
gust
MPH
rain 1hr
in
rain 24hr
in
rain mn
in
humidity
%
barometer
mb
20260507024533 53 334 4.0 12.0 0.01 0.22 0.22 84 1008.7
20260507023012 53 336 5.0 13.0 0.02 0.22 0.22 85 1008.6
20260507021523 55 344 4.0 10.0 0.01 0.21 0.21 87 1008.1
20260507020022 56 346 1.0 7.0 0.01 0.21 0.21 90 1008.0
20260507014523 58 359 2.0 7.0 0.01 0.21 0.21 90 1008.0
20260507013008 58 344 1.0 5.0 0.01 0.20 0.20 92 1007.6
20260507011516 58 298 1.0 5.0 0.01 0.20 0.20 93 1006.9
20260507010003 58 279 2.0 6.0 0.01 0.20 0.20 95 1006.8
20260507004504 58 233 1.0 5.0 0.01 0.20 0.20 95 1006.6
20260507003006 58 139 0.0 5.0 0.00 0.19 0.19 95 1006.5
20260507001514 58 135 0.0 5.0 0.00 0.19 0.19 95 1006.5
20260507000019 58 79 1.0 4.0 0.00 0.19 0.19 95 1006.5
20260506234505 58 226 0.0 6.0 0.00 0.19 0.19 94 1006.2
20260506233004 58 96 1.0 8.0 0.00 0.19 0.19 94 1006.2
20260506231507 58 155 1.0 4.0 0.01 0.19 0.19 94 1006.0
20260506230010 58 203 1.0 3.0 0.01 0.19 0.19 94 1005.8
20260506224515 58 65 2.0 5.0 0.05 0.19 0.19 94 1005.8
20260506223014 59 161 1.0 4.0 0.07 0.19 0.19 94 1005.9
20260506221505 59 159 1.0 6.0 0.06 0.18 0.18 94 1005.9
20260506220008 59 243 1.0 6.0 0.06 0.18 0.18 94 1005.9
20260506214513 59 141 0.0 4.0 0.02 0.14 0.14 93 1006.0
20260506213016 58 125 1.0 6.0 0.01 0.12 0.12 93 1006.1
20260506211528 59 127 1.0 8.0 0.02 0.12 0.12 93 1006.1
20260506210006 59 229 1.0 7.0 0.03 0.12 0.12 93 1006.2
20260506204515 59 113 3.0 6.0 0.04 0.12 0.12 92 1006.2
20260506203014 59 139 2.0 5.0 0.03 0.11 0.11 92 1006.3
20260506201518 59 105 0.0 7.0 0.03 0.10 0.10 92 1006.5
20260506200019 59 146 1.0 10.0 0.03 0.09 0.09 92 1006.6
20260506194506 59 220 3.0 10.0 0.03 0.08 0.08 92 1007.1
20260506191513 60 226 1.0 5.0 0.03 0.07 0.07 91 1007.1
20260506190020 60 236 3.0 8.0 0.02 0.06 0.06 89 1007.4
20260506184525 60 18 4.0 9.0 0.02 0.05 0.05 89 1007.3
20260506183005 61 167 2.0 5.0 0.04 0.05 0.05 88 1007.4
20260506181528 61 152 3.0 8.0 0.04 0.04 0.04 87 1007.4
20260506180016 62 159 2.0 5.0 0.04 0.04 0.04 86 1007.1
20260506174524 63 154 1.0 4.0 0.03 0.03 0.03 85 1007.6
20260506173042 64 240 1.0 8.0 0.01 0.01 0.01 80 1007.8
20260506171514 65 235 1.0 11.0 0.00 0.00 0.00 76 1008.3
20260506170038 66 122 1.0 10.0 0.00 0.00 0.00 73 1008.2
20260506164517 67 143 4.0 9.0 0.00 0.00 0.00 70 1007.9
20260506163028 67 76 2.0 6.0 0.00 0.00 0.00 69 1008.0
20260506161524 67 164 2.0 9.0 0.00 0.00 0.00 70 1008.3
20260506160010 66 121 1.0 3.0 0.00 0.00 0.00 72 1008.5
20260506154513 65 231 2.0 6.0 0.00 0.00 0.00 73 1009.0
20260506153023 65 268 2.0 10.0 0.00 0.00 0.00 74 1009.2
20260506151521 65 183 2.0 8.0 0.00 0.00 0.00 74 1009.3
20260506150026 64 146 3.0 9.0 0.00 0.00 0.00 74 1009.4
20260506144509 64 195 1.0 12.0 0.00 0.00 0.00 76 1009.4
20260506143023 64 125 1.0 12.0 0.00 0.00 0.00 76 1009.6
20260506141519 64 155 3.0 8.0 0.00 0.00 0.00 75 1009.4
20260506140023 64 253 2.0 11.0 0.00 0.00 0.00 76 1009.5
20260506134525 63 198 2.0 7.0 0.00 0.00 0.00 76 1009.2
20260506133025 63 95 2.0 7.0 0.00 0.00 0.00 77 1009.4
20260506131516 62 183 2.0 6.0 0.00 0.00 0.00 78 1009.4
20260506130004 62 122 2.0 5.0 0.00 0.00 0.00 78 1009.5
20260506124505 61 113 2.0 4.0 0.00 0.00 0.00 79 1009.6
20260506123010 61 308 1.0 5.0 0.00 0.00 0.00 80 1009.7
20260506121515 60 212 2.0 8.0 0.00 0.00 0.00 81 1009.7
20260506120018 60 223 0.0 8.0 0.00 0.00 0.00 81 1010.0
20260506114503 60 122 2.0 4.0 0.00 0.00 0.00 81 1009.9
20260506113028 59 202 1.0 8.0 0.00 0.00 0.00 82 1009.9
20260506111511 59 181 1.0 7.0 0.00 0.00 0.00 82 1009.7
20260506110018 58 205 3.0 6.0 0.00 0.00 0.00 83 1010.2
20260506104540 58 236 2.0 5.0 0.00 0.00 0.00 83 1010.2
20260506103007 58 244 1.0 4.0 0.00 0.00 0.00 83 1010.2
20260506101510 58 120 1.0 5.0 0.00 0.00 0.00 84 1009.8
20260506100014 57 214 0.0 4.0 0.00 0.00 0.00 84 1009.9
20260506094518 57 110 1.0 5.0 0.00 0.00 0.00 84 1009.8
20260506093020 57 138 1.0 4.0 0.00 0.00 0.00 83 1009.9
20260506091506 58 115 1.0 7.0 0.00 0.00 0.00 82 1009.8
20260506090035 58 210 0.0 4.0 0.00 0.00 0.00 82 1009.9
20260506084514 58 109 1.0 3.0 0.00 0.00 0.00 81 1009.9
20260506083034 58 110 1.0 4.0 0.00 0.00 0.00 81 1010.0
20260506081524 59 72 1.0 4.0 0.00 0.00 0.00 80 1009.9
20260506073018 59 127 0.0 1.0 0.00 0.00 0.00 79 1009.9
20260506071522 59 84 1.0 2.0 0.00 0.00 0.00 78 1010.0
20260506061516 61 116 0.0 4.0 0.00 0.00 0.00 72 1009.7
20260506044532 62 269 2.0 4.0 0.00 0.00 0.00 68 1009.9
20260506043027 62 212 2.0 7.0 0.00 0.00 0.00 68 1009.9
20260506041527 62 200 0.0 4.0 0.00 0.00 0.00 67 1010.0
20260506040020 62 71 0.0 7.0 0.00 0.00 0.00 67 1010.0
20260506034530 63 117 1.0 5.0 0.00 0.00 0.00 65 1010.0
20260506033028 63 105 2.0 4.0 0.00 0.00 0.00 65 1010.0
20260506031526 63 86 1.0 6.0 0.00 0.00 0.00 64 1009.8
20260506030028 63 79 1.0 3.0 0.00 0.00 0.00 63 1010.1